PEGASUS DEB, 39318

Orbit data source: Space-Track

PEGASUS DEB, 39318 is space debris in LEO originally from a launch on Thu, 19 May 1994 UTC launched from the Air Force Western Test Range (AFWTR). Debris objects in space refer to the collection of defunct objects orbiting the Earth. Examples of debris include non-operational satellites, rocket bodies, and fragments generated from explosions, collisions, or faulty payload assembly.

Loading next visibility...
Identifier
39318, 1994-029AFD
Orbit
LEO
Country
Flag of USUS
Related business
Manufacturer
Unknown
Mission
Spacecraft
Bus & Motor
Unknown
Mass
Unknown
Launch date (UTC)
1994-05-19 (32 years ago)
Launch vehicle
Unknown
Launch site
Air Force Western Test Range (AFWTR)
Object type
Payload
Rocket body
Debris
Shape & HBR
Unknown shape, 0.1 m
Radar Cross Section
Small (<0.1 m²)

Expand to show TLE details & history
Last TLE update: 2 days ago

TLE from 2 days ago
0 PEGASUS DEB
1 39318U 94029AFD 26061.07706313  .00001095  00000-0  15596-3 0  9994
2 39318  81.9461 178.4487 0185024 346.5145 138.1506 14.64904548262393
Epoch: 2026-03-02T01:50Z
TLE epoch observation values (Epoch: 2026-03-02T01:50:58.254Z)
Latitude
53.27585°
Longitude
159.95545°
Altitude
784.418 km
Speed
7.414 km/s
True Right ascension
23h 10m 17s
True Declination
53° 06' 41"
Sunlit
Object was in daylight at epoch
Visualization orbit readout
Latitude
Unknown
Longitude
Unknown
Altitude
Unknown
Speed
Unknown
Apparent Right ascension
Unknown
Apparent Declination
Unknown
Sunlit
N/A
Visualization observer readout
Local Sidereal Time
22:05:05
Azimuth
Unknown
Elevation
Unknown
Doppler factor
Unknown
Orbital elements
Apogee altitude
804.938 km
Perigee altitude
543.959 km
Semi-major axis
7,052.585 km
Eccentricity
0.0185
Inclination
81.9461°
RAAN
178.4487°
Arg. of periapsis
346.5145°
True anomaly
139.54105°
Mean anomaly
138.1506°
Eccentric anomaly
138.84821°
Mean motion
3.66455 °/min
Orbital period
98.24 mins
BSTAR
0.00015596
Loading maneuver chart data...
Computing Atmospheric mass density...
Loading historical data...
Loading historical data...
Loading historical data...
Loading historical data...
Loading historical data...
Loading historical data...
Loading historical data...

Documentation

Showing up to 5 results
|